DELTA 1 DEB, 29185

Orbit data source: Space-Track

DELTA 1 DEB, 29185 is space debris in LEO originally from a launch on Thu, 11 Jan 1968 UTC launched from the Air Force Western Test Range (AFWTR). Debris objects in space refer to the collection of defunct objects orbiting the Earth. Examples of debris include non-operational satellites, rocket bodies, and fragments generated from explosions, collisions, or faulty payload assembly.

Loading next visibility...
Identifier
29185, 1968-002J
Orbit
LEO
Country
Flag of USUS
Related business
Manufacturer
Unknown
Mission
Spacecraft
Bus & Motor
Unknown
Mass
Unknown
Launch date (UTC)
1968-01-11 (58 years ago)
Launch vehicle
Unknown
Launch site
Air Force Western Test Range (AFWTR)
Object type
Payload
Rocket body
Debris
Shape & HBR
Unknown shape, 0.1 m
Radar Cross Section
Small (<0.1 m²)

Expand to show TLE details & history
Last TLE update: 19 hours ago

TLE from 19 hours ago
0 DELTA 1 DEB
1 29185U 68002J   26035.19489156  .00001235  00000-0  27148-2 0  9995
2 29185 105.7824 171.3669 0263863 173.2453 187.2304 13.20353844449566
Epoch: 2026-02-04T04:40Z
TLE epoch observation values (Epoch: 2026-02-04T04:40:38.630Z)
Latitude
-0.00005°
Longitude
-33.15901°
Altitude
1,383.894 km
Speed
7.073 km/s
True Right ascension
11h 25m 28s
True Declination
0° 00' 00"
Sunlit
Object was in full shadow at epoch
Visualization orbit readout
Latitude
Unknown
Longitude
Unknown
Altitude
Unknown
Speed
Unknown
Apparent Right ascension
Unknown
Apparent Declination
Unknown
Sunlit
N/A
Visualization observer readout
Local Sidereal Time
01:40:24
Azimuth
Unknown
Elevation
Unknown
Doppler factor
Unknown
Orbital elements
Apogee altitude
1,380.566 km
Perigee altitude
981.645 km
Semi-major axis
7,559.243 km
Eccentricity
0.02639
Inclination
105.7824°
RAAN
171.3669°
Arg. of periapsis
173.2453°
True anomaly
186.86192°
Mean anomaly
187.2304°
Eccentric anomaly
187.04498°
Mean motion
3.30237 °/min
Orbital period
109.01 mins
BSTAR
0.0027148
Loading maneuver chart data...
Computing Atmospheric mass density...
Loading historical data...
Loading historical data...
Loading historical data...
Loading historical data...
Loading historical data...
Loading historical data...
Loading historical data...

Documentation

Showing up to 5 results
|